Date String (YYYY-MM-DD hh:mm:ss) UTC,Instrument flags,absolute air pressure of the measurement (hPa),sample flow rate (lpm),inlet stack bypass flow (lpm),air temperature of the measurement (°C),ambient temperature measured by the external sensor (°C),aerosol sample conditioner tube jacket temperature (°C),OPC LED temperature (°C),internal box temperature (°C),relative humidity of the measurement (%),span deviation,mass concentration of particles derived from Lorenz-Mie calculation of OPC scattering (μg/m³),mass concentration of particles derived from Lorenz-Mie calculation of OPC scattering (μg/m³),mass concentration of particles derived from Lorenz-Mie calculation of OPC scattering (μg/m³)
DateTimeUTC,F1_M11,P_M11,Q1_M11,Q2_M11,T1_M11,T2_M11,T3_M11,T4_M11,T5_M11,U1_M11,ZSPAN_M11,X0_M11,X2_M11,X1_M11
2023-10-26 03:00:00,SystemResetWarning,0824.0,5.00,000.00,028.8,027.5,000.0,037.1,030.5,18.0,0000.3,0020.39,0009.36,0007.80
2023-10-26 03:01:00,SystemResetWarning,0824.0,5.00,000.00,028.8,027.6,000.0,037.1,030.5,18.0,0000.4,0018.76,0009.27,0007.67
2023-10-26 03:02:00,SystemResetWarning,0824.0,5.00,000.00,028.8,027.6,000.0,037.2,030.5,18.0,0000.9,0018.27,0009.18,0007.55
2023-10-26 03:03:00,SystemResetWarning,0824.0,5.00,000.00,028.8,027.6,000.0,037.2,030.5,17.9,0001.0,0018.97,0009.12,0007.45
2023-10-26 03:04:00,SystemResetWarning,0824.0,5.00,000.00,028.8,027.6,000.0,037.2,030.6,17.9,0001.1,0020.08,0009.11,0007.41
2023-10-26 03:05:00,SystemResetWarning,0823.9,4.99,000.00,028.9,027.7,000.0,037.2,030.6,17.8,0001.2,0020.51,0009.10,0007.39
2023-10-26 03:06:00,SystemResetWarning,0824.0,5.00,000.00,028.9,027.7,000.0,037.2,030.6,17.8,0001.3,0020.29,0009.08,0007.38
2023-10-26 03:07:00,SystemResetWarning,0823.9,5.01,000.00,028.9,027.7,000.0,037.3,030.6,17.7,0001.7,0020.60,0008.96,0007.32
2023-10-26 03:08:00,SystemResetWarning,0823.9,5.00,000.00,028.9,027.7,000.0,037.3,030.6,17.7,0002.0,0020.67,0008.87,0007.23
2023-10-26 03:09:00,SystemResetWarning,0823.9,5.00,000.00,028.9,027.7,000.0,037.3,030.6,17.6,0002.3,0020.85,0008.80,0007.16
2023-10-26 03:10:00,SystemResetWarning,0824.0,5.00,000.00,029.0,027.7,000.0,037.3,030.6,17.6,0002.2,0021.44,0008.67,0007.08
2023-10-26 03:11:00,SystemResetWarning,0824.0,5.00,000.00,029.0,027.7,000.0,037.3,030.6,17.6,0002.0,0021.35,0008.63,0007.03
2023-10-26 03:12:00,SystemResetWarning,0823.9,5.00,000.00,029.0,027.8,000.0,037.4,030.7,17.8,0002.5,0021.61,0008.58,0007.02
2023-10-26 03:13:00,SystemResetWarning,0823.9,5.00,000.00,029.0,027.8,000.0,037.4,030.7,17.8,0002.4,0022.61,0008.54,0007.01
2023-10-26 03:14:00,SystemResetWarning,0823.9,5.00,000.00,029.0,027.8,000.0,037.4,030.7,17.8,0002.5,0021.83,0008.45,0007.00
2023-10-26 03:15:00,SystemResetWarning,0823.9,5.00,000.00,029.0,027.8,000.0,037.4,030.7,17.8,0002.5,0020.66,0008.43,0006.99
2023-10-26 03:16:00,SystemResetWarning,0824.0,5.00,000.00,029.0,027.8,000.0,037.4,030.7,17.8,0002.8,0019.80,0008.42,0006.99
2023-10-26 03:17:00,SystemResetWarning,0824.0,4.99,000.00,029.0,027.8,000.0,037.4,030.7,17.9,0002.9,0019.24,0008.50,0007.05
2023-10-26 03:18:00,SystemResetWarning,0824.0,5.00,000.00,029.1,027.8,000.0,037.4,030.8,18.0,0002.9,0018.11,0008.59,0007.14
2023-10-26 03:19:00,SystemResetWarning,0824.0,5.00,000.00,029.1,027.9,000.0,037.4,030.8,18.2,0002.4,0018.30,0008.76,0007.32
2023-10-26 03:20:00,SystemResetWarning,0824.0,4.99,000.00,029.1,027.9,000.0,037.5,030.8,18.1,0001.5,0018.31,0008.86,0007.45
2023-10-26 03:21:00,SystemResetWarning,0824.0,5.00,000.00,029.1,027.9,000.0,037.5,030.8,18.1,0001.7,0017.88,0009.07,0007.62
2023-10-26 03:22:00,SystemResetWarning,0824.0,5.01,000.00,029.1,027.9,000.0,037.5,030.8,18.0,0001.6,0017.93,0009.33,0007.79
2023-10-26 03:23:00,SystemResetWarning,0824.0,5.01,000.00,029.1,027.9,000.0,037.5,030.9,17.8,0000.9,0017.79,0009.53,0008.00
2023-10-26 03:24:00,SystemResetWarning,0823.9,4.99,000.00,029.1,028.0,000.0,037.5,030.9,17.8,0000.6,0017.45,0009.76,0008.19
2023-10-26 03:25:00,SystemResetWarning,0824.0,5.00,000.00,029.2,028.0,000.0,037.5,030.9,18.0,0000.2,0016.83,0010.09,0008.45
2023-10-26 03:26:00,SystemResetWarning,0824.0,5.00,000.00,029.2,028.0,000.0,037.5,030.9,17.9,-000.1,0017.50,0010.38,0008.70
2023-10-26 03:27:00,SystemResetWarning,0824.0,5.00,000.00,029.2,028.0,000.0,037.5,030.9,19.1,-000.5,0019.07,0010.66,0008.92
2023-10-26 03:28:00,SystemResetWarning,0824.0,5.00,000.00,029.2,028.1,000.0,037.6,031.0,18.8,-000.9,0019.41,0010.77,0009.03
2023-10-26 03:29:00,SystemResetWarning,0824.0,5.00,000.00,029.3,028.1,000.0,037.6,031.0,19.1,-001.0,0019.56,0010.86,0009.10
2023-10-26 03:30:00,SystemResetWarning,0824.0,5.00,000.00,029.3,028.1,000.0,037.6,031.0,18.0,-000.9,0019.70,0010.93,0009.12
2023-10-26 03:31:00,SystemResetWarning,0824.0,5.00,000.00,029.3,028.1,000.0,037.6,031.0,17.7,-000.6,0019.92,0010.96,0009.15
2023-10-26 03:32:00,SystemResetWarning,0824.0,4.99,000.00,029.3,028.1,000.0,037.6,031.0,17.9,-000.8,0019.68,0010.80,0009.02
2023-10-26 03:33:00,SystemResetWarning,0824.0,5.00,000.00,029.3,028.1,000.0,037.6,031.0,19.1,-001.1,0019.54,0010.52,0008.81
2023-10-26 03:34:00,SystemResetWarning,0823.9,4.99,000.00,029.3,028.1,000.0,037.7,031.0,18.9,-000.6,0020.13,0010.29,0008.56
2023-10-26 03:35:00,SystemResetWarning,0824.0,4.99,000.00,029.3,026.5,000.0,037.6,030.9,18.2,-000.2,0019.92,0009.97,0008.29
2023-10-26 03:36:00,SystemResetWarning,0823.9,5.00,000.00,029.2,024.8,000.0,037.6,030.7,18.2,-000.2,0019.48,0009.64,0007.98
2023-10-26 03:37:00,SystemResetWarning,0824.0,5.01,000.00,029.1,024.5,000.0,037.5,030.4,20.1,-000.3,0018.32,0009.30,0007.66
2023-10-26 03:38:00,SystemResetWarning,0824.0,5.01,000.00,028.9,024.8,000.0,037.5,030.2,20.7,0000.0,0017.37,0008.93,0007.34
2023-10-26 03:39:00,SystemResetWarning,0824.0,4.99,000.00,028.9,025.2,000.0,037.5,030.2,21.2,0000.7,0017.36,0008.64,0007.03
2023-10-26 03:40:00,SystemResetWarning,0823.9,5.00,000.00,028.8,025.6,000.0,037.5,030.3,21.5,0000.6,0017.81,0008.36,0006.74
2023-10-26 03:41:00,SystemResetWarning,0824.0,5.01,000.00,028.8,026.0,000.0,037.4,030.3,21.4,0000.6,0017.55,0008.08,0006.47
2023-10-26 03:42:00,SystemResetWarning,0823.9,5.01,000.00,028.8,026.3,000.0,037.4,030.3,21.5,0000.1,0017.10,0007.81,0006.21
2023-10-26 03:43:00,SystemResetWarning,0823.9,4.99,000.00,028.8,026.5,000.0,037.4,030.4,21.4,-000.0,0017.06,0007.71,0006.10
2023-10-26 03:44:00,SystemResetWarning,0823.9,4.99,000.00,028.8,026.7,000.0,037.3,030.4,21.3,0000.1,0016.95,0007.70,0006.08
2023-10-26 03:45:00,SystemResetWarning,0824.0,5.00,000.00,028.8,026.9,000.0,037.3,030.4,20.6,-000.3,0016.94,0007.71,0006.07
2023-10-26 03:46:00,SystemResetWarning,0823.9,5.01,000.00,028.8,027.1,000.0,037.3,030.4,21.2,-001.1,0017.09,0007.73,0006.08
2023-10-26 03:47:00,SystemResetWarning,0824.0,5.01,000.00,028.8,027.2,000.0,037.3,030.4,21.4,-001.0,0017.05,0007.71,0006.10
2023-10-26 03:48:00,SystemResetWarning,0823.9,5.00,000.00,028.8,027.3,000.0,037.3,030.5,21.2,-000.3,0017.11,0007.73,0006.11
2023-10-26 03:49:00,SystemResetWarning,0824.0,5.00,000.00,028.8,027.3,000.0,037.3,030.5,20.6,-000.6,0017.19,0007.67,0006.12
2023-10-26 03:50:00,SystemResetWarning,0823.9,5.00,000.00,028.8,027.4,000.0,037.3,030.5,20.2,-000.3,0017.81,0007.68,0006.13
2023-10-26 03:51:00,SystemResetWarning,0823.9,5.00,000.00,028.9,027.5,000.0,037.3,030.6,19.1,-000.2,0017.63,0007.61,0006.15
2023-10-26 03:52:00,SystemResetWarning,0823.9,5.00,000.00,028.9,027.5,000.0,037.3,030.6,18.5,-000.7,0017.68,0007.54,0006.16
2023-10-26 03:53:00,SystemResetWarning,0824.0,5.00,000.00,028.9,027.6,000.0,037.3,030.6,18.3,-001.1,0017.87,0007.56,0006.20
2023-10-26 03:54:00,SystemResetWarning,0824.0,5.00,000.00,028.9,027.6,000.0,037.3,030.6,18.2,-001.1,0017.90,0007.60,0006.26
2023-10-26 03:55:00,SystemResetWarning,0824.0,5.00,000.00,028.9,027.6,000.0,037.3,030.6,18.2,-001.0,0018.11,0007.69,0006.36
2023-10-26 03:56:00,SystemResetWarning,0824.0,5.00,000.00,028.9,027.7,000.0,037.3,030.6,18.1,-001.3,0017.95,0007.70,0006.42
2023-10-26 03:57:00,SystemResetWarning,0824.0,5.00,000.00,028.9,027.7,000.0,037.3,030.7,18.1,-001.1,0017.35,0007.72,0006.47
2023-10-26 03:58:00,SystemResetWarning,0824.0,5.00,000.00,029.0,027.7,000.0,037.4,030.7,18.2,-001.1,0017.59,0007.78,0006.52
2023-10-26 03:59:00,SystemResetWarning,0824.0,5.00,000.00,029.0,027.7,000.0,037.4,030.7,18.1,-001.6,0017.82,0007.81,0006.54
